DateTimeUTC,F1_A11,F1_S11,BsB_S11,BsG_S11,BsR_S11,BbsB_S11,BbsG_S11,BbsR_S11,BaB_A11,BaG_A11,BaR_A11,Tu_S11,T_S11,Uu_S11,U_S11,P_S11,T1_A11
2021-09-07T11:00:00Z,00000200,21000000,,,,,,,-000.52,-000.16,0000.02,17.9,24.7,01.2,00.8,0662.5,31.0
2021-09-07T11:01:00Z,00000200,21000000,,,,,,,-000.06,-000.04,-000.05,17.9,24.7,01.2,00.8,0662.5,31.0
2021-09-07T11:02:00Z,00000200,21010000,,,,,,,0000.25,-000.22,0000.27,17.9,24.8,01.2,00.8,0662.5,31.0
2021-09-07T11:03:00Z,00000200,61000000,,,,,,,-000.01,0000.29,-000.14,18.0,24.8,01.2,00.8,0662.5,31.0
2021-09-07T11:04:00Z,00000200,41000000,0001.21,0001.24,0000.44,0000.10,0000.04,0000.05,0000.21,0000.03,-000.01,18.2,24.6,01.3,00.9,0663.5,31.0
2021-09-07T11:05:00Z,00000200,01000000,0001.85,0000.90,0000.84,0000.47,0000.23,0000.42,0000.33,0000.39,0000.07,18.3,24.6,01.3,00.9,0663.5,31.0
2021-09-07T11:06:00Z,00000200,01000000,0001.45,0001.17,0000.44,0001.06,0000.31,0000.21,0000.18,0000.04,0000.49,18.2,24.6,01.2,00.8,0663.6,31.0
2021-09-07T11:07:00Z,00000200,01000000,0001.04,0001.06,0000.38,0000.50,0000.05,0000.30,0000.50,0000.26,-000.13,18.1,24.5,01.3,00.9,0663.6,30.9
2021-09-07T11:08:00Z,00000200,01000000,0000.96,0000.56,0000.59,0000.76,0000.13,0000.33,-000.01,0000.24,0000.35,18.1,24.5,01.3,00.8,0663.6,30.9
2021-09-07T11:09:00Z,00000200,01000000,0001.88,0000.99,0000.51,0000.15,0000.09,0000.54,0000.47,0000.38,0000.55,18.1,24.4,01.5,01.0,0663.6,30.9
2021-09-07T11:10:00Z,00000200,01000000,0001.53,0000.56,0001.09,0000.53,0000.31,0000.30,0000.60,0000.88,0000.17,18.1,24.4,01.5,01.0,0663.6,30.9
2021-09-07T11:11:00Z,00000200,01000000,0001.53,0001.10,0000.85,0000.34,0000.52,0000.25,0000.82,0000.57,0000.55,18.0,24.4,01.8,01.2,0663.6,30.9
2021-09-07T11:12:00Z,00000200,01000000,0001.73,0001.05,0000.77,0000.63,0000.14,0000.35,0000.77,0000.51,0000.60,18.1,24.4,01.8,01.2,0663.6,30.9
2021-09-07T11:13:00Z,00000200,00000000,0001.59,0000.87,0000.93,0000.11,-000.09,0000.40,0000.56,0000.55,0000.38,18.2,24.5,02.1,01.4,0663.6,31.0
2021-09-07T11:14:00Z,00000200,00000000,0001.66,0000.77,0000.64,0000.33,0000.24,0000.10,0000.22,0000.38,-000.07,18.3,24.5,02.3,01.6,0663.7,31.0
2021-09-07T11:15:00Z,00000200,00000000,0001.30,0000.57,0000.70,0000.59,0000.04,0000.46,0000.22,-000.04,0000.24,18.5,24.6,02.2,01.5,0663.7,31.0
2021-09-07T11:16:00Z,00000200,00000000,0001.48,0001.16,0000.65,0000.13,-000.21,0000.21,-000.37,-000.03,0000.06,18.6,24.7,02.0,01.4,0663.7,31.0
2021-09-07T11:17:00Z,00000200,01000000,0000.99,0000.78,0000.82,0000.00,0000.27,0000.18,-000.32,-000.57,-000.28,18.6,24.7,01.6,01.1,0663.7,31.0
2021-09-07T11:18:00Z,00000200,01000000,0001.31,0000.71,0000.78,0000.37,0000.01,0000.21,-000.24,0000.25,-000.06,18.6,24.7,01.5,01.0,0663.7,31.0
2021-09-07T11:19:00Z,00000200,01000000,0000.93,0000.30,0000.90,-000.03,0000.22,0000.55,0000.81,0000.59,0000.49,18.6,24.7,01.4,01.0,0663.7,31.0
2021-09-07T11:20:00Z,00000200,01000000,0001.38,0000.65,0000.92,0000.67,0000.09,0000.30,0000.02,0000.09,0000.13,18.6,24.7,01.5,01.0,0663.7,31.0
2021-09-07T11:21:00Z,00000200,01000000,0001.78,0001.06,0000.82,0000.47,0000.06,0000.21,-000.08,0000.00,-000.16,18.6,24.7,01.4,01.0,0663.7,31.0
2021-09-07T11:22:00Z,00000200,01000000,0001.52,0000.85,0000.58,0000.35,0000.19,0000.28,0000.20,-000.21,0000.10,18.5,24.7,01.5,01.0,0663.8,31.0
2021-09-07T11:23:00Z,00000200,01000000,0000.99,0001.12,0000.74,0000.33,0000.44,0000.21,0000.33,0000.34,0000.37,18.4,24.6,01.5,01.0,0663.8,31.0
2021-09-07T11:24:00Z,00000200,01000000,0001.78,0000.77,0000.67,0000.08,-000.06,0000.03,0000.43,0000.57,-000.07,18.4,24.6,01.4,01.0,0663.8,30.9
2021-09-07T11:25:00Z,00000200,01000000,0001.82,0000.98,0000.53,0000.24,-000.04,0000.37,0000.35,0000.04,0000.48,18.4,24.6,01.5,01.0,0663.8,31.0
2021-09-07T11:26:00Z,00000200,01000000,0001.63,0001.02,0000.85,0000.48,0000.18,0000.07,0000.00,0000.13,0000.16,18.4,24.6,01.4,00.9,0663.8,31.0
2021-09-07T11:27:00Z,00000200,01000000,0000.45,0000.69,0000.40,0000.79,0000.31,0000.27,0000.35,0000.16,-000.12,18.4,24.6,01.4,00.9,0663.8,31.0
2021-09-07T11:28:00Z,00000200,01000000,0000.76,0000.63,0000.82,0000.93,-000.02,0000.36,0000.40,0000.76,0000.41,18.5,24.7,01.4,01.0,0663.8,31.0
2021-09-07T11:29:00Z,00000200,01000000,0001.74,0000.71,0000.63,0000.79,0000.05,0000.25,-000.10,0000.26,0000.32,18.6,24.7,01.3,00.9,0663.8,31.0
2021-09-07T11:30:00Z,00000200,01000000,0000.63,0000.85,0000.98,0000.84,-000.01,0000.64,0000.31,-000.23,0000.15,18.6,24.8,01.3,00.9,0663.8,31.0
2021-09-07T11:31:00Z,00000200,01000000,0001.71,0000.80,0000.65,0000.76,0000.13,-000.02,0000.15,0000.08,0000.16,18.7,24.8,01.4,00.9,0663.8,31.0
2021-09-07T11:32:00Z,00000200,01000000,0000.65,0001.05,0000.59,0000.79,-000.02,0000.36,0000.21,0000.18,-000.12,18.7,24.8,01.3,00.9,0663.8,31.0
2021-09-07T11:33:00Z,00000200,01000000,0001.14,0001.05,0000.68,0000.00,-000.06,0000.44,-000.13,0000.35,0000.13,18.6,24.8,01.3,00.9,0663.8,31.0
2021-09-07T11:34:00Z,00000200,01000000,0001.39,0001.13,0000.78,0000.58,0000.10,0000.43,0000.30,0000.13,0000.33,18.6,24.7,01.2,00.8,0663.8,31.0
2021-09-07T11:35:00Z,00000200,01000000,0001.35,0000.78,0000.76,0000.37,0000.34,0000.19,0000.22,0000.38,0000.10,18.5,24.7,01.2,00.8,0663.8,31.0
2021-09-07T11:36:00Z,00000200,01000000,0001.85,0001.16,0000.68,0001.17,0000.27,0000.46,0000.48,-000.03,0000.26,18.5,24.7,01.2,00.8,0663.8,31.0
2021-09-07T11:37:00Z,00000200,01000000,0001.58,0000.83,0000.14,0000.25,0000.23,0000.23,0000.22,0000.16,0000.17,18.4,24.7,01.3,00.9,0663.8,31.0
2021-09-07T11:38:00Z,00000200,01000000,0001.50,0000.74,0000.69,0000.76,0000.17,0000.33,-000.24,0000.27,0000.08,18.4,24.6,01.2,00.8,0663.8,31.0
2021-09-07T11:39:00Z,00000200,01000000,0001.80,0000.81,0000.45,-000.03,-000.15,0000.22,0000.31,0000.32,0000.01,18.4,24.6,01.1,00.8,0663.9,31.0
2021-09-07T11:40:00Z,00000200,01000000,0000.86,0001.31,0000.73,0000.46,0000.06,0000.53,0000.50,0000.37,0000.54,18.3,24.6,01.3,00.9,0663.8,31.0
2021-09-07T11:41:00Z,00000200,01000000,0001.42,0000.78,0000.64,0000.94,-000.10,0000.42,0000.48,0000.30,0000.15,18.3,24.6,01.3,00.9,0663.8,31.0
2021-09-07T11:42:00Z,00000200,01000000,0001.47,0000.82,0000.62,0000.81,0000.01,0000.49,0000.63,0000.24,0000.48,18.4,24.6,01.4,00.9,0663.8,31.0
2021-09-07T11:43:00Z,00000200,01000000,0001.45,0000.89,0000.59,0000.82,0000.22,0000.27,0000.11,0000.42,0000.36,18.5,24.6,01.3,00.9,0663.8,31.0
2021-09-07T11:44:00Z,00000200,01000000,0001.20,0000.95,0001.04,0000.56,0000.15,0000.49,-000.15,0000.20,-000.14,18.6,24.7,01.3,00.9,0663.8,31.0
2021-09-07T11:45:00Z,00000200,01000000,0000.94,0001.00,0000.55,0000.49,-000.05,0000.12,0000.17,-000.28,-000.09,18.6,24.8,01.2,00.8,0663.8,31.0
2021-09-07T11:46:00Z,00000200,01000000,0000.95,0000.70,0000.50,0001.01,0000.08,0000.04,-000.09,-000.10,-000.12,18.7,24.8,01.1,00.7,0663.8,31.0
2021-09-07T11:47:00Z,00000200,01000000,0001.66,0000.75,0000.80,0000.24,0000.22,0000.27,-000.28,0000.12,0000.25,18.6,24.8,00.9,00.6,0663.8,31.0
2021-09-07T11:48:00Z,00000200,01000000,0000.87,0000.94,0000.70,0000.69,0000.08,0000.15,0000.43,0000.32,-000.10,18.6,24.8,00.9,00.6,0663.9,31.0
2021-09-07T11:49:00Z,00000200,01000000,0001.26,0001.08,0000.77,0000.20,0000.06,0000.25,0000.06,0000.03,0000.27,18.6,24.7,00.8,00.5,0663.9,31.0
2021-09-07T11:50:00Z,00000200,01000000,0001.72,0000.35,0000.81,0000.79,0000.24,0000.13,0000.40,-000.00,-000.17,18.5,24.7,00.8,00.5,0663.9,31.0
2021-09-07T11:51:00Z,00000200,01000000,0001.37,0000.64,0000.65,0000.23,0000.10,0000.47,0000.01,0000.12,0000.48,18.5,24.7,00.8,00.5,0663.9,31.0
2021-09-07T11:52:00Z,00000200,01000000,0001.68,0000.72,0000.68,0000.11,0000.51,0000.33,-000.02,-000.25,-000.12,18.4,24.7,00.7,00.5,0663.9,31.0
2021-09-07T11:53:00Z,00000200,01000000,0001.34,0000.78,0000.54,0000.71,0000.33,0000.37,0000.27,0000.99,0000.26,18.4,24.7,00.7,00.5,0663.9,31.0
2021-09-07T11:54:00Z,00000200,01000000,0000.70,0001.35,0000.86,0000.70,0000.15,0000.41,0000.27,0000.05,0000.21,18.3,24.6,00.7,00.5,0663.9,30.9
2021-09-07T11:55:00Z,00000200,01000000,0001.64,0000.61,0000.70,0000.56,0000.27,0000.25,0000.36,-000.15,-000.02,18.3,24.6,00.7,00.5,0663.9,30.9
2021-09-07T11:56:00Z,00000200,01000000,0001.40,0000.86,0000.61,0000.29,0000.02,0000.63,0000.38,0000.49,0000.47,18.3,24.6,00.7,00.5,0663.9,30.9
2021-09-07T11:57:00Z,00000200,41000000,,,,,,,0000.54,0000.62,0000.36,18.4,24.5,01.2,00.8,0663.9,31.0
2021-09-07T11:58:00Z,00000200,61000000,,,,,,,0000.04,-000.01,-000.20,18.1,24.8,00.7,00.5,0662.9,31.0
2021-09-07T11:59:00Z,00000200,21000000,,,,,,,-000.68,-000.04,-000.20,18.2,24.9,00.6,00.4,0662.9,31.0
